Location: Complexul Astronomic Baia Mare
(47.6577°N, 23.5639°E)
Time: 06:54:41
(UTC+03:00)

ISS - Pass Details

Date: 24 May 2017
Orbit: 402 x 408 km, 51.6° (Epoch: 29 May)

Event Time Altitude Azimuth Distance (km) Brightness Sun altitude
Rises 02:58:18 0° 291° (WNW) 2,332 0.0 -18.3°
Reaches altitude 10° 03:00:26 10° 296° (WNW) 1,469 -1.0 -18.1°
Maximum altitude 03:03:39 51° 14° (NNE) 518 -3.0 -17.9°
Drops below altitude 10° 03:06:51 10° 92° (E) 1,461 -0.7 -17.7°
Sets 03:08:58 0° 98° (E) 2,318 0.3 -17.5°
